Mountain Home Air Force Base, ID

10:02 PM MDT on September 30, 2016 (GMT -0600)
Mountain Home Air Force Base

Weather History for KMUO - January, 2013

Change the Weather History Date:

Wednesday, January 9, 2013

  Actual Average Record
Temperature  
Mean Temperature 36 °F -  
Max Temperature 40 °F 37 °F 66 °F (1953)
Min Temperature 32 °F - -19 °F (1937)
Degree Days  
Heating Degree Days 29 35  
Month to date heating degree days 402 321  
Cooling Degree Days 0 0  
Month to date cooling degree days 0 0  
Moisture  
Dew Point 36 °F    
Average Humidity 99    
Maximum Humidity 100    
Minimum Humidity 87    
Precipitation  
Precipitation 0.04 in 0.04 in 0.50 in (1970)
Month to date precipitation 0.04 0.35  
Sea Level Pressure  
Sea Level Pressure 29.91 in    
Wind  
Wind Speed 18 mph (ESE)    
Max Wind Speed 25 mph    
Max Gust Speed 29 mph    
Visibility 9 miles    
Events Rain    
T = Trace of Precipitation, MM = Missing Value Source: NWS Daily Summary

Daily Weather History Graph

Daily Weather History Graph

Search for Another Location

Airport or City:

Trip Planner

Search our weather history database for the weather conditions in past years. The results will help you decide how hot, cold, wet, or windy it might be!

Date:

Astronomy

Jan. 09, 2013 Rise Set
Actual Time 8:14 AM MST 5:27 PM MST
Civil Twilight 7:42 AM MST 5:59 PM MST
Nautical Twilight 7:06 AM MST 6:34 PM MST
Astronomical Twilight 6:32 AM MST 7:09 PM MST
Moon 5:58 AM MST (1/9) 3:33 PM MST (1/9)
Length of Visible Light 10h 17m
Length of Day
9h 13m
Waning Crescent, 6% of the Moon is Illuminated
Jan 9
Waning Crescent
Jan 11
New
Jan 18
First Quarter
Jan 26
Full
Feb 3
Last Quarter

Hourly Weather History & Observations

Time (MST) Temp. Windchill Dew Point Humidity Pressure Visibility Wind Dir Wind Speed Gust Speed Precip Events Conditions
12:58 AM 32.5 °F 20.8 °F 32.5 °F 100% 30.29 in 10.0 mi ESE 19.6 mph - N/A   Clear
1:58 AM 33.4 °F 22.7 °F 33.4 °F 100% 30.27 in 10.0 mi ESE 17.3 mph - N/A   Clear
2:58 AM 32.9 °F 21.3 °F 32.9 °F 100% 30.25 in 10.0 mi East 19.6 mph - N/A   Clear
3:58 AM 34.5 °F 23.8 °F 34.5 °F 100% 30.22 in 10.0 mi ESE 18.4 mph - N/A   Clear
4:58 AM 33.6 °F 21.3 °F 33.6 °F 100% 30.19 in 10.0 mi ESE 23.0 mph - N/A   Clear
5:58 AM 33.4 °F 22.3 °F 33.4 °F 100% 30.16 in 10.0 mi ESE 18.4 mph - N/A   Clear
6:58 AM 35.4 °F 24.0 °F 35.4 °F 100% 30.14 in 10.0 mi ESE 21.9 mph - N/A   Scattered Clouds
7:58 AM 34.7 °F 22.8 °F 34.7 °F 100% 30.13 in 10.0 mi ESE 23.0 mph - N/A   Overcast
8:58 AM 35.8 °F 25.4 °F 35.8 °F 100% 30.10 in 10.0 mi ESE 18.4 mph - N/A   Overcast
9:58 AM 36.5 °F 24.7 °F 36.5 °F 100% 30.09 in 10.0 mi ESE 25.3 mph - N/A   Mostly Cloudy
10:58 AM 37.0 °F 25.9 °F 37.0 °F 100% 30.05 in 10.0 mi ESE 23.0 mph - N/A   Overcast
11:58 AM 38.5 °F 28.1 °F 37.4 °F 96% 30.02 in 10.0 mi ESE 21.9 mph - N/A   Scattered Clouds
12:58 PM 39.2 °F 29.6 °F 37.0 °F 92% 29.98 in 10.0 mi ESE 19.6 mph - N/A   Scattered Clouds
1:58 PM 39.9 °F 29.7 °F 36.3 °F 87% 29.96 in 10.0 mi ESE 23.0 mph - N/A   Partly Cloudy
2:58 PM 39.7 °F 30.0 °F 36.5 °F 88% 29.93 in 10.0 mi East 20.7 mph 28.8 mph N/A   Overcast
3:58 PM 38.7 °F 29.8 °F 37.9 °F 97% 29.89 in 10.0 mi ESE 16.1 mph - N/A   Overcast
4:58 PM 39.2 °F 29.3 °F 36.9 °F 91% 29.86 in 10.0 mi ESE 20.7 mph - N/A   Overcast
5:58 PM 37.9 °F 27.6 °F 37.9 °F 100% 29.85 in 10.0 mi SE 20.7 mph - N/A   Overcast
6:58 PM 37.9 °F 28.2 °F 37.8 °F 99% 29.81 in 10.0 mi ESE 18.4 mph - N/A   Overcast
7:58 PM 36.7 °F 26.0 °F 36.7 °F 100% 29.79 in 10.0 mi SE 20.7 mph - N/A   Overcast
8:58 PM 37.2 °F 27.9 °F 37.2 °F 100% 29.75 in 10.0 mi ESE 16.1 mph - N/A   Mostly Cloudy
9:19 PM 37.4 °F 26.9 °F 37.4 °F 100% 29.72 in 10.0 mi ESE 20.7 mph - N/A Rain Light Rain
9:58 PM 36.9 °F 28.7 °F 36.9 °F 100% 29.77 in 10.0 mi SE 12.7 mph - 0.00 in   Overcast
10:03 PM 37.4 °F 33.8 °F 37.4 °F 100% 29.73 in 10.0 mi Variable 4.6 mph - N/A   Light Drizzle
10:28 PM 37.4 °F 34.9 °F 37.4 °F 100% 29.72 in 10.0 mi Variable 3.5 mph - N/A   Mostly Cloudy
10:43 PM 37.4 °F 34.9 °F 37.4 °F 100% 29.73 in 10.0 mi Variable 3.5 mph - N/A   Light Drizzle
10:53 PM 37.4 °F 33.8 °F 37.4 °F 100% 29.74 in 10.0 mi West 4.6 mph - N/A Rain Light Rain
10:58 PM 36.9 °F - 36.9 °F 100% 29.78 in 9.0 mi WNW 2.3 mph - 0.00 in Rain Light Rain
11:03 PM 35.6 °F - 35.6 °F 100% 29.73 in 5.0 mi North 2.3 mph - N/A Rain Light Rain
11:08 PM 35.6 °F - 35.6 °F 100% 29.73 in 3.0 mi West 2.3 mph - N/A Rain Light Rain
11:30 PM 35.6 °F 24.5 °F 35.6 °F 100% 29.67 in 5.0 mi East 20.7 mph - N/A Rain Light Rain
11:35 PM 35.6 °F 25.5 °F 35.6 °F 100% 29.67 in 8.0 mi ESE 17.3 mph - N/A Rain Light Rain
11:50 PM 35.6 °F 24.8 °F 35.6 °F 100% 29.69 in 9.0 mi ESE 19.6 mph 26.5 mph N/A Rain Light Rain
11:55 PM 35.6 °F 24.8 °F 35.6 °F 100% 29.68 in 9.0 mi East 19.6 mph - N/A Rain Light Rain
11:58 PM 35.6 °F 24.5 °F 35.6 °F 100% 29.72 in 9.0 mi East 20.7 mph - 0.04 in Rain Light Rain